Location: Saint-Morand
(47.8012°N, 1.2794°W)
Time: 04:35:19
(UTC+00:00)

Cosmos 1602 - Pass Details

Date: 03 March 2021
Orbit: 512 x 534 km, 82.5° (Epoch: 22 April)

Event Time Altitude Azimuth Distance (km) Brightness Sun altitude
Rises 18:40:13 0° 184° (S) 2,649 7.4 -8.7°
Reaches altitude 10° 18:42:20 10° 183° (S) 1,768 6.5 -9.1°
Maximum altitude 18:46:13 78° 98° (E) 548 3.7 -9.7°
Drops below altitude 10° 18:50:09 10° 12° (NNE) 1,795 6.3 -10.4°
Sets 18:52:19 0° 11° (N) 2,693 7.3 -10.8°
